OneWeb SL0066

operational
NORAD ID: 45424 Int'l Des: 2020-020 Owner: ONEWEB Country: UK Constellation: oneweb
LEOCIRCULARPOLARONEWEB_TYPE

关于 OneWeb SL0066

正在加载描述...

实时位置

正在加载3D地球...

即将过境

高度历史

Altitude vs Time

uPlot chart will show altitude changes over time

两行轨道根数

1 45424U 20020A 26034.47475711 .00001985 00000-0 55624-2 0 9991
2 45424 87.8821 47.6717 0001808 84.8529 275.2805 13.11420339285157
Epoch: Feb 3, 2026 • Age: 21 hours

当前状态

高度 1228.9 km
速度 7.25 km/s
星下点 72.25°N, 34.86°W
发射日期 Mar 21, 2020
运行时间 5.8 years
类型 internet

技术详情

分类 Payload
质量 148.00 kg
干质量 140.00 kg
总质量 148.00 kg
长度 1.30 m
直径 1.00 m
跨度 5.00 m
形状 Trapezoid+2 pan
制造商 ONEWUS
平台类型 ARROW
阶段状态 In Orbit
所有者/国家 ONEWEB/UK

大型星座

Loading constellations...